Location: Dehesa de la Cepeda
(40.6574°N, 4.3013°W)
Time: 07:44:48
(UTC+00:00)

Vanguard 3 - Pass Details

Date: 04 August 2021
Orbit: 510 x 3260 km, 33.3° (Epoch: 18 September)

Event Time Altitude Azimuth Distance (km) Brightness Sun altitude
Rises 00:22:21 0° 281° (W) 7,133 12.1 -32.1°
Reaches altitude 10° 00:28:22 10° 271° (W) 6,197 11.6 -32.1°
Enters shadow 00:41:00 25° 232° (SW) 4,804 10.6 -32.0°
